| time (UTC) | temp F | wind direction | speed MPH | gust MPH | rain 1hr in | rain 24hr in | rain mn in | humidity % | barometer mb |
| 20260504004003 | 56 | 105 | 8.0 | 17.0 | 0.00 | 0.00 | 0.00 | 52 | 1014.5 |
| 20260504003004 | 56 | 105 | 9.0 | 15.0 | 0.00 | 0.00 | 0.00 | 51 | 1014.5 |
| 20260504002004 | 56 | 102 | 8.0 | 15.0 | 0.00 | 0.00 | 0.00 | 51 | 1014.5 |
| 20260504001004 | 56 | 103 | 9.0 | 16.0 | 0.00 | 0.00 | 0.00 | 50 | 1014.6 |
| 20260504000004 | 57 | 103 | 9.0 | 16.0 | 0.00 | 0.00 | 0.00 | 50 | 1014.5 |
| 20260503235004 | 57 | 106 | 9.0 | 16.0 | 0.00 | 0.00 | 0.00 | 50 | 1014.6 |
| 20260503234003 | 57 | 108 | 9.0 | 15.0 | 0.00 | 0.00 | 0.00 | 49 | 1014.7 |
| 20260503233004 | 57 | 105 | 9.0 | 15.0 | 0.00 | 0.00 | 0.00 | 49 | 1014.7 |
| 20260503232003 | 57 | 101 | 10.0 | 16.0 | 0.00 | 0.00 | 0.00 | 49 | 1014.8 |
| 20260503231004 | 57 | 104 | 8.0 | 15.0 | 0.00 | 0.00 | 0.00 | 48 | 1014.8 |
| 20260503230004 | 57 | 102 | 8.0 | 15.0 | 0.00 | 0.00 | 0.00 | 48 | 1014.8 |
| 20260503225004 | 57 | 99 | 8.0 | 13.0 | 0.00 | 0.00 | 0.00 | 48 | 1015.0 |
| 20260503224003 | 57 | 101 | 8.0 | 13.0 | 0.00 | 0.00 | 0.00 | 48 | 1015.0 |
| 20260503223003 | 58 | 102 | 7.0 | 13.0 | 0.00 | 0.00 | 0.00 | 48 | 1015.1 |
| 20260503222003 | 58 | 105 | 9.0 | 13.0 | 0.00 | 0.00 | 0.00 | 48 | 1015.1 |
| 20260503221003 | 58 | 103 | 7.0 | 13.0 | 0.00 | 0.00 | 0.00 | 48 | 1015.1 |
| 20260503220005 | 58 | 106 | 7.0 | 14.0 | 0.00 | 0.00 | 0.00 | 48 | 1015.2 |
| 20260503215004 | 58 | 110 | 8.0 | 15.0 | 0.00 | 0.00 | 0.00 | 48 | 1015.2 |
| 20260503214003 | 58 | 111 | 9.0 | 15.0 | 0.00 | 0.00 | 0.00 | 48 | 1015.1 |
| 20260503213003 | 59 | 113 | 9.0 | 15.0 | 0.00 | 0.00 | 0.00 | 48 | 1015.1 |
| 20260503212003 | 59 | 112 | 8.0 | 15.0 | 0.00 | 0.00 | 0.00 | 48 | 1015.1 |
| 20260503211004 | 59 | 106 | 8.0 | 15.0 | 0.00 | 0.00 | 0.00 | 48 | 1015.0 |
| 20260503210005 | 59 | 112 | 8.0 | 13.0 | 0.00 | 0.00 | 0.00 | 48 | 1015.2 |
| 20260503205004 | 60 | 112 | 9.0 | 17.0 | 0.00 | 0.00 | 0.00 | 48 | 1015.2 |
| 20260503204003 | 60 | 105 | 9.0 | 15.0 | 0.00 | 0.00 | 0.00 | 48 | 1015.1 |
| 20260503203003 | 61 | 109 | 10.0 | 17.0 | 0.00 | 0.00 | 0.00 | 48 | 1015.2 |
| 20260503202004 | 61 | 111 | 10.0 | 17.0 | 0.00 | 0.00 | 0.00 | 48 | 1015.2 |
| 20260503201004 | 61 | 108 | 10.0 | 17.0 | 0.00 | 0.00 | 0.00 | 49 | 1015.2 |
| 20260503200004 | 61 | 110 | 10.0 | 16.0 | 0.00 | 0.00 | 0.00 | 49 | 1015.3 |
| 20260503195004 | 62 | 108 | 9.0 | 14.0 | 0.00 | 0.00 | 0.00 | 49 | 1015.5 |
| 20260503194004 | 62 | 105 | 8.0 | 14.0 | 0.00 | 0.00 | 0.00 | 50 | 1015.7 |
| 20260503193004 | 62 | 111 | 7.0 | 12.0 | 0.00 | 0.00 | 0.00 | 50 | 1015.7 |
| 20260503192004 | 63 | 115 | 6.0 | 10.0 | 0.00 | 0.00 | 0.00 | 49 | 1015.7 |
| 20260503191004 | 63 | 115 | 7.0 | 13.0 | 0.00 | 0.00 | 0.00 | 48 | 1015.7 |
| 20260503190004 | 63 | 117 | 7.0 | 12.0 | 0.00 | 0.00 | 0.00 | 48 | 1015.7 |
| 20260503185004 | 64 | 120 | 8.0 | 13.0 | 0.00 | 0.00 | 0.00 | 47 | 1015.6 |
| 20260503184004 | 64 | 121 | 8.0 | 13.0 | 0.00 | 0.00 | 0.00 | 47 | 1015.5 |
| 20260503183004 | 65 | 123 | 8.0 | 14.0 | 0.00 | 0.00 | 0.00 | 46 | 1015.5 |
| 20260503182005 | 65 | 124 | 7.0 | 13.0 | 0.00 | 0.00 | 0.00 | 46 | 1015.4 |
| 20260503181004 | 65 | 126 | 8.0 | 15.0 | 0.00 | 0.00 | 0.00 | 45 | 1015.2 |
| 20260503180004 | 66 | 130 | 8.0 | 15.0 | 0.00 | 0.00 | 0.00 | 44 | 1015.3 |
| 20260503175003 | 66 | 128 | 8.0 | 13.0 | 0.00 | 0.00 | 0.00 | 44 | 1015.2 |
| 20260503174003 | 67 | 126 | 10.0 | 17.0 | 0.00 | 0.00 | 0.00 | 43 | 1015.2 |
| 20260503173004 | 67 | 130 | 10.0 | 16.0 | 0.00 | 0.00 | 0.00 | 42 | 1015.1 |
| 20260503172004 | 68 | 129 | 12.0 | 19.0 | 0.00 | 0.00 | 0.00 | 41 | 1015.1 |
| 20260503171004 | 68 | 127 | 11.0 | 22.0 | 0.00 | 0.00 | 0.00 | 41 | 1015.1 |
| 20260503151004 | 70 | 139 | 13.0 | 23.0 | 0.00 | 0.00 | 0.00 | 39 | 1015.6 |
| 20260503131004 | 70 | 141 | 14.0 | 22.0 | 0.00 | 0.00 | 0.00 | 41 | 1016.8 |
| 20260503081003 | 62 | 137 | 11.0 | 22.0 | 0.00 | 0.00 | 0.00 | 51 | 1019.4 |
| 20260503072003 | 58 | 126 | 7.0 | 12.0 | 0.00 | 0.00 | 0.00 | 55 | 1019.3 |
| 20260503071004 | 57 | 135 | 8.0 | 17.0 | 0.00 | 0.00 | 0.00 | 58 | 1019.3 |
| 20260503055003 | 54 | 103 | 11.0 | 18.0 | 0.00 | 0.00 | 0.00 | 59 | 1018.7 |
| 20260503054003 | 54 | 102 | 9.0 | 14.0 | 0.00 | 0.00 | 0.00 | 60 | 1018.6 |
| 20260503053003 | 53 | 101 | 8.0 | 15.0 | 0.00 | 0.00 | 0.00 | 61 | 1018.5 |
| 20260503052003 | 53 | 94 | 9.0 | 13.0 | 0.00 | 0.00 | 0.00 | 61 | 1018.5 |
| 20260503051003 | 52 | 94 | 8.0 | 15.0 | 0.00 | 0.00 | 0.00 | 62 | 1018.5 |
| 20260503050003 | 52 | 89 | 8.0 | 14.0 | 0.00 | 0.00 | 0.00 | 62 | 1018.4 |
| 20260503045003 | 52 | 85 | 9.0 | 15.0 | 0.00 | 0.00 | 0.00 | 63 | 1018.4 |
| 20260503044003 | 51 | 85 | 9.0 | 15.0 | 0.00 | 0.00 | 0.00 | 63 | 1018.4 |
| 20260503043003 | 51 | 83 | 7.0 | 13.0 | 0.00 | 0.00 | 0.00 | 63 | 1018.4 |
| 20260503042003 | 51 | 85 | 6.0 | 12.0 | 0.00 | 0.00 | 0.00 | 63 | 1018.5 |
| 20260503041004 | 51 | 86 | 8.0 | 12.0 | 0.00 | 0.00 | 0.00 | 63 | 1018.4 |
| 20260503040004 | 51 | 83 | 8.0 | 14.0 | 0.00 | 0.00 | 0.00 | 63 | 1018.3 |
| 20260503035003 | 51 | 83 | 8.0 | 13.0 | 0.00 | 0.00 | 0.00 | 63 | 1018.4 |
| 20260503034003 | 51 | 82 | 7.0 | 13.0 | 0.00 | 0.00 | 0.00 | 63 | 1018.4 |
| 20260503033003 | 51 | 81 | 8.0 | 13.0 | 0.00 | 0.00 | 0.00 | 62 | 1018.4 |
| 20260503032004 | 51 | 82 | 7.0 | 13.0 | 0.00 | 0.00 | 0.00 | 60 | 1018.3 |
| 20260503031003 | 52 | 85 | 6.0 | 11.0 | 0.00 | 0.00 | 0.00 | 57 | 1018.3 |
| 20260503030004 | 53 | 82 | 8.0 | 12.0 | 0.00 | 0.00 | 0.00 | 55 | 1018.2 |
| 20260503025004 | 54 | 85 | 7.0 | 12.0 | 0.00 | 0.00 | 0.00 | 53 | 1018.2 |
| 20260503024003 | 54 | 88 | 6.0 | 11.0 | 0.00 | 0.00 | 0.00 | 52 | 1018.3 |
| 20260503023003 | 55 | 84 | 6.0 | 10.0 | 0.00 | 0.00 | 0.00 | 51 | 1018.4 |
| 20260503022003 | 55 | 87 | 5.0 | 9.0 | 0.00 | 0.00 | 0.00 | 51 | 1018.4 |
| 20260503021003 | 55 | 85 | 6.0 | 11.0 | 0.00 | 0.00 | 0.00 | 51 | 1018.4 |
| 20260503020003 | 53 | 86 | 3.0 | 10.0 | 0.00 | 0.00 | 0.00 | 54 | 1018.4 |
| 20260503015004 | 54 | 65 | 3.0 | 4.0 | 0.00 | 0.00 | 0.00 | 54 | 1018.3 |
| 20260503014003 | 54 | 74 | 1.0 | 4.0 | 0.00 | 0.00 | 0.00 | 53 | 1018.3 |
| 20260503013003 | 54 | 0 | 0.0 | 0.0 | 0.00 | 0.00 | 0.00 | 52 | 1018.3 |
| 20260503012004 | 54 | 84 | 0.0 | 2.0 | 0.00 | 0.00 | 0.00 | 52 | 1018.4 |
| 20260503011004 | 54 | 84 | 2.0 | 4.0 | 0.00 | 0.00 | 0.00 | 52 | 1018.4 |
| 20260503010004 | 54 | 78 | 3.0 | 5.0 | 0.00 | 0.00 | 0.00 | 52 | 1018.4 |
| 20260503005003 | 55 | 71 | 3.0 | 5.0 | 0.00 | 0.00 | 0.00 | 51 | 1018.4 |